Regional Weather Roundup
Issued by NWS Upton, NY

Current Version | Previous Version | Text Only | Print | Product List | Glossary On
Versions: 1 2 3 4 5 6 7 8 9 10 11 12 13 14 15 16 17 18 19 20 21 22 23 24 25 26 27
000
ASUS41 KOKX 250505
RWROKX
REGIONAL WEATHER ROUNDUP
NATIONAL WEATHER SERVICE NEW YORK NY
100 AM EDT SAT OCT 25 2014

NOTE: "FAIR" INDICATES FEW OR NO CLOUDS BELOW 12,000 FEET WITH NO
SIGNIFICANT WEATHER AND/OR OBSTRUCTIONS TO VISIBILITY.

NYZ071-072-176-178-NJZ106-104-250600-
NEW YORK CITY METRO AREA


CITY           SKY/WX    TMP DP  RH WIND       PRES   REMARKS
CENTRAL PARK   CLEAR     55  36  48 VRB3      29.87S
LAGUARDIA APRT PTCLDY    57  39  51 NW8       29.84R
KENNEDY INTL   PTCLDY    53  39  59 NW8       29.85R
NEWARK/LIBERTY PTCLDY    55  38  52 NW10      29.85S
BRNX BOT. GARD   N/A     52  37  58 W2        29.84S
TETERBORO      CLEAR     53  36  52 NW7       29.84R
$$

NYZ177-179-078>081-250600-
LONG ISLAND NEW YORK

CITY           SKY/WX    TMP DP  RH WIND       PRES   REMARKS
FARMINGDALE    CLEAR     47  44  90 CALM      29.84S
ISLIP          CLEAR     49  45  86 W5        29.81S
SHIRLEY        CLEAR     54  44  69 NW10      29.82S
WESTHAMPTON    CLEAR     52  45  77 NW7       29.82S
MONTAUK POINT    N/A     55  45  68 NW12G20   29.80S
$$

NYZ052-065-067-250600-
HUDSON VALLEY

CITY           SKY/WX    TMP DP  RH WIND       PRES   REMARKS
WHITE PLAINS   CLEAR     45  43  93 NW9       29.82F
NEWBURGH       CLEAR     43  41  93 NW6       29.86S
MONTGOMERY     CLEAR     52  32  46 VRB5      29.84S
POUGHKEEPSIE   CLEAR     41  39  93 CALM      29.85S FOG
ALBANY         PTCLDY    42  40  92 CALM      29.85F
$$

NJZ001-105-106-008-010-013-015-019>022-104-250600-
NEW JERSEY

CITY           SKY/WX    TMP DP  RH WIND       PRES   REMARKS
NEWARK/LIBERTY PTCLDY    55  38  52 NW10      29.85S
TETERBORO      CLEAR     53  36  52 NW7       29.84R
CALDWELL       CLEAR     53  35  50 CALM      29.87R
MORRISTOWN     CLEAR     50  41  71 CALM      29.87R
SOMERVILLE     PTCLDY    47  39  74 CALM      29.86R
SUSSEX         PTCLDY    52  38  58 CALM      29.88R
ANDOVER          N/A     52  34  50 N8        29.88R
TRENTON        PTCLDY    54  36  50 NW7       29.87R
MILLVILLE      CLEAR     53  40  61 NW9       29.89S
ATLANTIC CITY  PTCLDY    52  40  63 W6        29.88R
WRIGHTSTOWN    PTCLDY    52  42  68 NW3       29.85S HAZE
TOMS RIVER     MOCLDY    45  41  87 CALM      29.87R
BELMAR         PTCLDY    54  37  54 NW8       29.85S
$$

PAZ047>061-062-071-250600-
EASTERN PENNSYLVANIA

CITY           SKY/WX    TMP DP  RH WIND       PRES   REMARKS
PHILADELPHIA   PTCLDY    56  37  49 W7        29.90R
ALLENTOWN      CLEAR     51  30  44 SW3       29.90R
SCRANTON       CLEAR     44  34  67 CALM      29.91S
$$

CTZ002-004>006-009-010-012-RIZ004-006-007-MAZ004-011-015-250600-
SOUTHERN NEW ENGLAND
 IN CT

CITY           SKY/WX    TMP DP  RH WIND       PRES   REMARKS
BRADLEY INTL   CLEAR     51  41  68 NW7       29.79S
HARTFORD       CLEAR     48  43  82 SW9       29.80S
DANBURY        CLEAR     46  40  79 W6        29.84S
WTRBRY/OXFORD  CLEAR     48  39  71 N8        29.82R
BRIDGEPORT     CLEAR     53  43  68 NW12G18   29.81F
MERIDEN        CLEAR     50  42  74 N5        29.80S
NEW HAVEN      CLEAR     52  44  74 NW5       29.80S
CHESTER        FAIR      45  43  93 NW5       29.79F
GROTON         PTCLDY    49  43  80 NW6       29.78S
WILLIMANTIC    CLEAR     47  42  83 CALM      29.79R

 IN RI

CITY           SKY/WX    TMP DP  RH WIND       PRES   REMARKS
PROVIDENCE     PTCLDY    50  41  71 NW5       29.77S
BLOCK ISLAND   CLOUDY    52  41  66 NW12G17   29.77S
WESTERLY       CLOUDY    51  43  74 CALM      29.78F

 IN MA

CITY           SKY/WX    TMP DP  RH WIND       PRES   REMARKS
BOSTON         CLEAR     46  41  82 NW7       29.75R
WORCESTER      PTCLDY    45  39  79 NW9       29.75S
WESTFIELD      PTCLDY    51  39  63 NW13      29.79S
PROVINCETOWN   CLOUDY    52  -2  11 NW13G18   29.74R
NANTUCKET      CLOUDY    51  44  77 NW10      29.74R
$$

ANZ330-335-338-340-345-350-353-355-250600-
COASTAL MARINE OBSERVATIONS


STATION/POSITION TIME  SKY/WX   TEMP    WIND        PRES    VSBY  WAVE
                                AIR SEA DIR/SP/G                  HT/PER
                 (UTC)          (F)     (DEG/KT/KT) (MB)    (MI)  (FT/S)
NY HARB ENTRANCE NOT AVBL
4S FIRE IS       0500               62                N/A           2/ 9
20S FIRE ISLAND  0500            61 63  330/ 16/ 19 1009.6          2/ 9
23SW MTP         0500                                 N/A           3/ 4
HUDSON CANYON    0500            61 66  310/ 12/ 14 1009.6          3/ 9
EXECUTION ROCKS  0500            55 62  330/  8/ 10   N/A
WESTERN LI SOUND 0500            55     330/  8/ 12   N/A           0
CENTRAL LI SOUND 0400            56 62  310/ 14/ 17   N/A           2/ 3
EASTERN LI SOUND 0400            54 63  300/ 12/ 16   N/A
ROBBINS REEF     0500            58     320/ 11/ 13 1009.5
$$


>>>>>>>>>>>>>>>>>>>>>>>>>>>> KEY <<<<<<<<<<<<<<<<<<<<<<<<<<<
>                                                          <
>     SKY/WX - SKY CONDITION/PRESENT WEATHER               <
>     TMP    - TEMPERATURE IN FAHRENHEIT                   <
>     DP     - DEWPOINT IN FAHRENHEIT                      <
>     RH     - RELATIVE HUMIDITY IN PERCENT                <
>     WIND   - DIRECTION AND SPEED IN MPH                  <
>     PRES   - MEAN SEA LEVEL PRESSURE IN INCHES OF HG     <
>     WCI    - WIND CHILL INDEX                            <
>     VSB    - VISIBILITY IN MILES                         <
>     HX     - HEAT INDEX                                  <
>     TC     - TEMPERATURE IN CELSIUS                      <
>     VRB    - VARIABLE WIND DIRECTION                     <
>                                                          <
>>>>>>>>>>>>>>>>>>>>>>>>>>>> KEY <<<<<<<<<<<<<<<<<<<<<<<<<<<





USA.gov is the U.S. government's official web portal to all federal, state and local government web resources and services.